Benson, MN

7:55 PM CST on February 20, 2017 (GMT -0600)
Benson Municipal

Weather History for KBBB - June, 2014

Change the Weather History Date:

Tuesday, June 3, 2014

  Actual Average Record
Temperature  
Mean Temperature 60 °F -  
Max Temperature 71 °F 77 °F 97 °F (1968)
Min Temperature 48 °F 51 °F 35 °F (1998)
Degree Days  
Heating Degree Days 6    
Growing Degree Days 10 (Base 50)    
Moisture  
Dew Point 53 °F    
Average Humidity 72    
Maximum Humidity 100    
Minimum Humidity 50    
Precipitation  
Precipitation 0.00 in - - ()
Sea Level Pressure  
Sea Level Pressure 29.92 in    
Wind  
Wind Speed 4 mph (WNW)    
Max Wind Speed 8 mph    
Max Gust Speed -    
Visibility 9 miles    
Events Fog    
Averages and records for this station are not official NWS values.
T = Trace of Precipitation, MM = Missing Value Source: NWS Daily Summary

Daily Weather History Graph

Daily Weather History Graph

Search for Another Location

Airport or City:

Trip Planner

Search our weather history database for the weather conditions in past years. The results will help you decide how hot, cold, wet, or windy it might be!

Date:

Astronomy

Jun. 03, 2014 Rise Set
Actual Time 5:36 AM CDT 9:05 PM CDT
Civil Twilight 5:00 AM CDT 9:42 PM CDT
Nautical Twilight 4:11 AM CDT 10:30 PM CDT
Astronomical Twilight 3:09 AM CDT 11:33 PM CDT
Moon 11:11 AM CDT (6/3) 12:24 AM CDT (6/3)
Length of Visible Light 16h 42m
Length of Day
15h 28m
Waxing Crescent, 30% of the Moon is Illuminated
Jun 3
Waxing Crescent
Jun 5
First Quarter
Jun 12
Full
Jun 19
Last Quarter
Jun 27
New

Hourly Weather History & Observations

Time (CDT) Temp. Dew Point Humidity Pressure Visibility Wind Dir Wind Speed Gust Speed Precip Events Conditions
12:14 AM 55.4 °F 51.8 °F 88% 29.93 in 10.0 mi NNW 6.9 mph - N/A   Clear
12:33 AM 55.4 °F 51.8 °F 88% 29.94 in 10.0 mi NNW 6.9 mph - N/A   Clear
12:54 AM 55.4 °F 51.8 °F 88% 29.94 in 10.0 mi NNW 5.8 mph - N/A   Clear
1:14 AM 53.6 °F 51.8 °F 94% 29.94 in 10.0 mi NNW 6.9 mph - N/A   Clear
1:33 AM 53.6 °F 51.8 °F 94% 29.94 in 10.0 mi NNW 4.6 mph - N/A   Scattered Clouds
1:54 AM 53.6 °F 51.8 °F 94% 29.94 in 10.0 mi NW 4.6 mph - N/A   Scattered Clouds
2:13 AM 53.6 °F 51.8 °F 94% 29.94 in 10.0 mi NNW 5.8 mph - N/A   Clear
2:33 AM 53.6 °F 51.8 °F 94% 29.94 in 10.0 mi NNW 4.6 mph - N/A   Clear
2:54 AM 51.8 °F 50.0 °F 94% 29.94 in 10.0 mi Calm Calm - N/A   Clear
3:12 AM 51.8 °F 51.8 °F 100% 29.95 in 10.0 mi WNW 3.5 mph - N/A   Clear
3:34 AM 51.8 °F 50.0 °F 94% 29.94 in 7.0 mi Calm Calm - N/A   Clear
3:54 AM 51.8 °F 51.8 °F 100% 29.94 in 10.0 mi Calm Calm - N/A   Clear
4:13 AM 51.8 °F 50.0 °F 94% 29.94 in 7.0 mi Calm Calm - N/A   Clear
4:34 AM 50.0 °F 48.2 °F 94% 29.94 in 7.0 mi NW 3.5 mph - N/A   Clear
4:54 AM 50.0 °F 48.2 °F 94% 29.94 in 7.0 mi NW 5.8 mph - N/A   Clear
5:13 AM 48.2 °F 48.2 °F 100% 29.94 in 5.0 mi Calm Calm - N/A   Clear
5:34 AM 50.0 °F 48.2 °F 94% 29.93 in 1.2 mi North 3.5 mph - N/A   Mist
5:54 AM 51.8 °F 50.0 °F 94% 29.94 in 0.2 mi Calm Calm - N/A Fog Fog
6:13 AM 51.8 °F 50.0 °F 94% 29.95 in 0.2 mi Calm Calm - N/A Fog Fog
6:34 AM 51.8 °F 51.8 °F 100% 29.96 in 2.5 mi WSW 3.5 mph - N/A   Scattered Clouds
6:54 AM 53.6 °F 53.6 °F 100% 29.97 in 2.0 mi West 4.6 mph - N/A   Clear
7:13 AM 55.4 °F 53.6 °F 94% 29.97 in 7.0 mi West 4.6 mph - N/A   Clear
7:34 AM 55.4 °F 55.4 °F 100% 29.97 in 10.0 mi West 4.6 mph - N/A   Clear
7:54 AM 59.0 °F 55.4 °F 88% 29.97 in 10.0 mi WNW 4.6 mph - N/A   Clear
8:13 AM 60.8 °F 55.4 °F 82% 29.98 in 10.0 mi NW 4.6 mph - N/A   Clear
8:34 AM 62.6 °F 55.4 °F 77% 29.99 in 10.0 mi NW 4.6 mph - N/A   Clear
8:53 AM 62.6 °F 55.4 °F 77% 29.98 in 10.0 mi NNW 3.5 mph - N/A   Clear
9:14 AM 64.4 °F 55.4 °F 73% 29.99 in 10.0 mi WNW 6.9 mph - N/A   Clear
9:34 AM 66.2 °F 55.4 °F 68% 29.99 in 10.0 mi NW 5.8 mph - N/A   Clear
9:53 AM 66.2 °F 53.6 °F 64% 29.99 in 10.0 mi WNW 5.8 mph - N/A   Clear
10:14 AM 66.2 °F 53.6 °F 64% 29.99 in 10.0 mi NW 6.9 mph - N/A   Clear
10:34 AM 66.2 °F 53.6 °F 64% 29.98 in 10.0 mi WNW 6.9 mph - N/A   Clear
10:53 AM 68.0 °F 53.6 °F 60% 29.98 in 10.0 mi West 5.8 mph - N/A   Clear
11:14 AM 68.0 °F 53.6 °F 60% 29.97 in 10.0 mi West 5.8 mph - N/A   Clear
11:34 AM 69.8 °F 51.8 °F 53% 29.97 in 10.0 mi NNW 3.5 mph - N/A   Clear
11:53 AM 69.8 °F 51.8 °F 53% 29.95 in 7.0 mi WNW 3.5 mph - N/A   Clear
12:14 PM 69.8 °F 53.6 °F 56% 29.95 in 10.0 mi WSW 4.6 mph - N/A   Clear
12:33 PM 69.8 °F 53.6 °F 56% 29.95 in 10.0 mi WSW 5.8 mph - N/A   Clear
12:53 PM 71.6 °F 53.6 °F 53% 29.94 in 10.0 mi West 5.8 mph - N/A   Scattered Clouds
1:14 PM 71.6 °F 53.6 °F 53% 29.94 in 10.0 mi SSW 4.6 mph - N/A   Clear
1:33 PM 71.6 °F 51.8 °F 50% 29.94 in 7.0 mi West 4.6 mph - N/A   Clear
1:54 PM 71.6 °F 53.6 °F 53% 29.94 in 4.0 mi WSW 8.1 mph - N/A   Haze
2:14 PM 69.8 °F 53.6 °F 56% 29.93 in 10.0 mi WSW 5.8 mph - N/A   Clear
2:54 PM 69.8 °F 53.6 °F 56% 29.91 in 10.0 mi Calm Calm - N/A   Clear
3:14 PM 69.8 °F 53.6 °F 56% 29.90 in 7.0 mi SW 4.6 mph - N/A   Clear
3:33 PM 71.6 °F 53.6 °F 53% 29.90 in 10.0 mi Calm Calm - N/A   Clear
3:54 PM 71.6 °F 51.8 °F 50% 29.90 in 10.0 mi WNW 3.5 mph - N/A   Clear
4:13 PM 71.6 °F 51.8 °F 50% 29.91 in 10.0 mi Calm Calm - N/A   Clear
4:54 PM 71.6 °F 55.4 °F 57% 29.89 in 10.0 mi South 4.6 mph - N/A   Clear
5:13 PM 71.6 °F 53.6 °F 53% 29.89 in 10.0 mi South 4.6 mph - N/A   Clear
5:33 PM 71.6 °F 51.8 °F 50% 29.89 in 10.0 mi SW 3.5 mph - N/A   Clear
5:54 PM 71.6 °F 51.8 °F 50% 29.86 in 10.0 mi SW 3.5 mph - N/A   Clear
6:13 PM 71.6 °F 53.6 °F 53% 29.85 in 10.0 mi Calm Calm - N/A   Clear
6:34 PM 71.6 °F 51.8 °F 50% 29.85 in 10.0 mi East 3.5 mph - N/A   Clear
6:54 PM 71.6 °F 53.6 °F 53% 29.84 in 10.0 mi ESE 3.5 mph - N/A   Clear
7:13 PM 71.6 °F 51.8 °F 50% 29.84 in 10.0 mi SE 3.5 mph - N/A   Clear
7:34 PM 69.8 °F 51.8 °F 53% 29.83 in 10.0 mi East 4.6 mph - N/A   Clear
7:53 PM 69.8 °F 51.8 °F 53% 29.82 in 10.0 mi ESE 4.6 mph - N/A   Clear
8:13 PM 69.8 °F 51.8 °F 53% 29.83 in 10.0 mi SE 3.5 mph - N/A   Clear
8:34 PM 69.8 °F 51.8 °F 53% 29.84 in 10.0 mi Calm Calm - N/A   Clear
8:53 PM 68.0 °F 51.8 °F 56% 29.84 in 10.0 mi Calm Calm - N/A   Clear
9:13 PM 66.2 °F 53.6 °F 64% 29.84 in 10.0 mi SE 4.6 mph - N/A   Clear
9:34 PM 68.0 °F 51.8 °F 56% 29.87 in 10.0 mi SE 3.5 mph - N/A   Clear
10:14 PM 64.4 °F 55.4 °F 73% 29.89 in 10.0 mi SSW 4.6 mph - N/A   Clear
10:53 PM 62.6 °F 55.4 °F 77% 29.86 in 10.0 mi Calm Calm - N/A   Clear
11:14 PM 62.6 °F 55.4 °F 77% 29.85 in 10.0 mi Calm Calm - N/A   Clear
11:34 PM 62.6 °F 55.4 °F 77% 29.84 in 10.0 mi Calm Calm - N/A   Clear